AAL900 KFLL-KBNA

Flight info

Callsign AAL900
Flight time 1h 54m
Altitude 30000
Route HROCK2 KPASA Q118 THRSR SWFFT3
Aircraft A21N/M-SDE2E3FGHIRWXY/LB1

Departure

Time 2026-05-04 12:20
Airport Fort Lauderdale Hollywood International Airport (KFLL)

Arrival

Time 2026-05-04 14:14
Airport Nashville International Airport (KBNA)
Time Latitude Longitude Altitude Speed Heading
2026-05-04 11:57 26.07343 -80.14764 12 ft 0 kts 107°
2026-05-04 12:12 26.07344 -80.14765 12 ft 1 kts 107°
2026-05-04 12:12 26.07348 -80.14782 12 ft 2 kts 104°
2026-05-04 12:12 26.07351 -80.14799 12 ft 2 kts 95°
2026-05-04 12:12 26.07347 -80.14816 12 ft 1 kts 61°
2026-05-04 12:13 26.07329 -80.14826 12 ft 3 kts
2026-05-04 12:14 26.07400 -80.14825 12 ft 8 kts
2026-05-04 12:15 26.07459 -80.14799 12 ft 10 kts 44°
2026-05-04 12:15 26.07489 -80.14717 12 ft 13 kts 88°
2026-05-04 12:15 26.07487 -80.14605 12 ft 15 kts 91°
2026-05-04 12:15 26.07486 -80.14475 12 ft 17 kts 90°
2026-05-04 12:16 26.07486 -80.14332 12 ft 19 kts 90°
2026-05-04 12:16 26.07486 -80.14181 12 ft 19 kts 90°
2026-05-04 12:16 26.07485 -80.14040 12 ft 13 kts 91°
2026-05-04 12:16 26.07502 -80.13972 12 ft 8 kts 26°
2026-05-04 12:17 26.07552 -80.13947 12 ft 5 kts 45°
2026-05-04 12:17 26.07565 -80.13934 12 ft 1 kts 31°
2026-05-04 12:17 26.07576 -80.13928 12 ft 2 kts 21°
2026-05-04 12:17 26.07593 -80.13924 12 ft 2 kts
2026-05-04 12:18 26.07617 -80.13924 12 ft 3 kts 359°
2026-05-04 12:18 26.07647 -80.13924 12 ft 4 kts 359°
2026-05-04 12:18 26.07674 -80.13940 12 ft 5 kts 303°
2026-05-04 12:18 26.07681 -80.13981 12 ft 5 kts 270°
2026-05-04 12:19 26.07680 -80.14012 12 ft 0 kts 269°
2026-05-04 12:19 26.07680 -80.14095 12 ft 40 kts 271°
2026-05-04 12:19 26.07684 -80.14693 12 ft 112 kts 270°
2026-05-04 12:19 26.07690 -80.15803 14 ft 169 kts 271°
2026-05-04 12:20 26.07679 -80.17143 539 ft 175 kts 270°
2026-05-04 12:20 26.07636 -80.18503 1140 ft 181 kts 271°
2026-05-04 12:20 26.07550 -80.19908 1762 ft 188 kts 266°
2026-05-04 12:20 26.07480 -80.21417 2195 ft 206 kts 272°
2026-05-04 12:21 26.07445 -80.23088 2601 ft 227 kts 270°
2026-05-04 12:21 26.07414 -80.24940 2992 ft 251 kts 272°
2026-05-04 12:21 26.07445 -80.27004 3479 ft 271 kts 273°
2026-05-04 12:21 26.07473 -80.29085 4384 ft 273 kts 273°
2026-05-04 12:22 26.07869 -80.31112 5350 ft 270 kts 295°
2026-05-04 12:22 26.08928 -80.32780 6240 ft 270 kts 311°
2026-05-04 12:22 26.10203 -80.34318 7104 ft 271 kts 311°
2026-05-04 12:22 26.11475 -80.35873 7936 ft 273 kts 311°
2026-05-04 12:23 26.12768 -80.37424 8724 ft 275 kts 310°
2026-05-04 12:23 26.14063 -80.38987 9533 ft 275 kts 310°
2026-05-04 12:23 26.15343 -80.40546 10304 ft 276 kts 310°
2026-05-04 12:23 26.16663 -80.42158 10803 ft 288 kts 309°
2026-05-04 12:24 26.18047 -80.43861 11125 ft 305 kts 309°
2026-05-04 12:24 26.19524 -80.45673 11435 ft 322 kts 309°
2026-05-04 12:24 26.21066 -80.47571 11724 ft 339 kts 309°
2026-05-04 12:24 26.22691 -80.49572 12038 ft 353 kts 309°
2026-05-04 12:25 26.24322 -80.51631 12598 ft 359 kts 308°
2026-05-04 12:25 26.25967 -80.53720 13375 ft 359 kts 307°
2026-05-04 12:25 26.27628 -80.55835 14016 ft 361 kts 307°
2026-05-04 12:25 26.29284 -80.57951 14614 ft 364 kts 307°
2026-05-04 12:26 26.30945 -80.60075 15199 ft 367 kts 307°
2026-05-04 12:26 26.32705 -80.62318 15802 ft 370 kts 307°
2026-05-04 12:26 26.34437 -80.64528 16381 ft 372 kts 307°
2026-05-04 12:26 26.36140 -80.66705 16886 ft 376 kts 306°
2026-05-04 12:27 26.37876 -80.68922 17407 ft 379 kts 306°
2026-05-04 12:27 26.39610 -80.71137 17932 ft 381 kts 306°
2026-05-04 12:27 26.41403 -80.73392 18469 ft 384 kts 308°
2026-05-04 12:27 26.43244 -80.75612 19020 ft 386 kts 308°
2026-05-04 12:28 26.45095 -80.77830 19575 ft 387 kts 308°
2026-05-04 12:28 26.46949 -80.80061 20112 ft 388 kts 308°
2026-05-04 12:28 26.48813 -80.82296 20656 ft 389 kts 309°
2026-05-04 12:28 26.50755 -80.84452 21182 ft 391 kts 312°
2026-05-04 12:29 26.52838 -80.86533 21631 ft 396 kts 315°
2026-05-04 12:29 26.55012 -80.88528 22125 ft 398 kts 315°
2026-05-04 12:29 26.57172 -80.90494 22596 ft 399 kts 316°
2026-05-04 12:29 26.59364 -80.92483 23058 ft 400 kts 316°
2026-05-04 12:30 26.61560 -80.94479 23472 ft 403 kts 316°
2026-05-04 12:30 26.63732 -80.96454 23972 ft 403 kts 316°
2026-05-04 12:30 26.65937 -80.98459 24412 ft 404 kts 316°
2026-05-04 12:30 26.68140 -81.00466 24809 ft 406 kts 316°
2026-05-04 12:31 26.70350 -81.02478 25141 ft 408 kts 316°
2026-05-04 12:31 26.72609 -81.04539 25388 ft 413 kts 315°
2026-05-04 12:31 26.74864 -81.06599 25689 ft 416 kts 316°
2026-05-04 12:31 26.77124 -81.08657 26174 ft 414 kts 315°
2026-05-04 12:32 26.80072 -81.11346 26924 ft 408 kts 315°
2026-05-04 12:32 26.83762 -81.14719 27669 ft 405 kts 315°
2026-05-04 12:32 26.85967 -81.16734 28119 ft 403 kts 315°
2026-05-04 12:33 26.88151 -81.18733 28535 ft 401 kts 315°
2026-05-04 12:33 26.90327 -81.20725 28887 ft 401 kts 315°
2026-05-04 12:33 26.92525 -81.22739 29191 ft 402 kts 315°
2026-05-04 12:33 26.94710 -81.24747 29418 ft 404 kts 315°
2026-05-04 12:34 26.96918 -81.26772 29679 ft 405 kts 315°
2026-05-04 12:34 26.99135 -81.28806 29973 ft 405 kts 315°
2026-05-04 12:34 27.01339 -81.30810 30038 ft 407 kts 316°
2026-05-04 12:35 27.05990 -81.34508 30052 ft 410 kts 321°
2026-05-04 12:35 27.10942 -81.37788 30056 ft 411 kts 323°
2026-05-04 12:36 27.15920 -81.40955 30056 ft 413 kts 323°
2026-05-04 12:36 27.20937 -81.44147 30060 ft 411 kts 324°
2026-05-04 12:37 27.25941 -81.47329 30062 ft 412 kts 324°
2026-05-04 12:37 27.30923 -81.50495 30067 ft 412 kts 324°
2026-05-04 12:38 27.36125 -81.53350 30066 ft 417 kts 330°
2026-05-04 12:38 27.41534 -81.55845 30068 ft 418 kts 330°
2026-05-04 12:39 27.46934 -81.58307 30071 ft 417 kts 331°
2026-05-04 12:39 27.52370 -81.60787 30072 ft 418 kts 331°
2026-05-04 12:40 27.57771 -81.63254 30069 ft 417 kts 331°
2026-05-04 12:40 27.63186 -81.65730 30074 ft 415 kts 330°
2026-05-04 12:41 27.68567 -81.68189 30071 ft 416 kts 330°
2026-05-04 12:41 27.73926 -81.70646 30075 ft 416 kts 330°
2026-05-04 12:42 27.79327 -81.73124 30080 ft 416 kts 330°
2026-05-04 12:42 27.84704 -81.75591 30083 ft 416 kts 330°
2026-05-04 12:43 27.90082 -81.78062 30090 ft 415 kts 330°
2026-05-04 12:43 27.95468 -81.80541 30091 ft 415 kts 330°
2026-05-04 12:44 28.00838 -81.83012 30098 ft 415 kts 330°
2026-05-04 12:44 28.06178 -81.85478 30099 ft 415 kts 330°
2026-05-04 12:45 28.11573 -81.87971 30108 ft 414 kts 330°
2026-05-04 12:45 28.16757 -81.90717 30100 ft 410 kts 326°
2026-05-04 12:46 28.21667 -81.94010 30111 ft 406 kts 320°
2026-05-04 12:46 28.26312 -81.97634 30102 ft 406 kts 319°
2026-05-04 12:47 28.30969 -82.01314 30111 ft 406 kts 320°
2026-05-04 12:47 28.35622 -82.04997 30115 ft 407 kts 319°
2026-05-04 12:48 28.40248 -82.08670 30108 ft 406 kts 320°
2026-05-04 12:48 28.44902 -82.12365 30113 ft 407 kts 319°
2026-05-04 12:49 28.49558 -82.16065 30123 ft 407 kts 320°
2026-05-04 12:49 28.54227 -82.19776 30109 ft 407 kts 320°
2026-05-04 12:50 28.58880 -82.23482 30117 ft 407 kts 320°
2026-05-04 12:50 28.63557 -82.27210 30110 ft 408 kts 320°
2026-05-04 12:51 28.68241 -82.30950 30129 ft 408 kts 320°
2026-05-04 12:51 28.72891 -82.34670 30128 ft 408 kts 320°
2026-05-04 12:52 28.77557 -82.38405 30129 ft 409 kts 320°
2026-05-04 12:52 28.82250 -82.42164 30124 ft 409 kts 320°
2026-05-04 12:53 28.86946 -82.45934 30136 ft 409 kts 320°
2026-05-04 12:53 28.91606 -82.49676 30128 ft 410 kts 320°
2026-05-04 12:54 28.96298 -82.53446 30124 ft 410 kts 320°
2026-05-04 12:54 29.00982 -82.57218 30138 ft 411 kts 320°
2026-05-04 12:55 29.05704 -82.61025 30129 ft 410 kts 320°
2026-05-04 12:55 29.10381 -82.64795 30124 ft 409 kts 320°
2026-05-04 12:56 29.15045 -82.68562 30142 ft 410 kts 320°
2026-05-04 12:56 29.19707 -82.72332 30130 ft 410 kts 319°
2026-05-04 12:57 29.24396 -82.76131 30132 ft 411 kts 320°
2026-05-04 12:57 29.29049 -82.79901 30136 ft 410 kts 320°
2026-05-04 12:58 29.33711 -82.83683 30131 ft 410 kts 319°
2026-05-04 12:58 29.38365 -82.87464 30130 ft 410 kts 319°
2026-05-04 12:59 29.43048 -82.91276 30133 ft 411 kts 319°
2026-05-04 12:59 29.47740 -82.95051 30144 ft 412 kts 321°
2026-05-04 13:00 29.52677 -82.98415 30142 ft 416 kts 326°
2026-05-04 13:00 29.57948 -83.01255 30143 ft 421 kts 331°
2026-05-04 13:01 29.63361 -83.03852 30154 ft 421 kts 332°
2026-05-04 13:01 29.68786 -83.06437 30139 ft 421 kts 332°
2026-05-04 13:02 29.74212 -83.09026 30148 ft 422 kts 331°
2026-05-04 13:02 29.79656 -83.11630 30144 ft 424 kts 332°
2026-05-04 13:03 29.85115 -83.14242 30142 ft 423 kts 332°
2026-05-04 13:03 29.90549 -83.16843 30142 ft 424 kts 332°
2026-05-04 13:04 29.95995 -83.19457 30157 ft 424 kts 332°
2026-05-04 13:04 30.01472 -83.22086 30148 ft 424 kts 332°
2026-05-04 13:05 30.06926 -83.24708 30142 ft 425 kts 332°
2026-05-04 13:05 30.12385 -83.27338 30148 ft 424 kts 332°
2026-05-04 13:06 30.17857 -83.29976 30144 ft 424 kts 332°
2026-05-04 13:06 30.23326 -83.32616 30140 ft 424 kts 332°
2026-05-04 13:07 30.28769 -83.35241 30135 ft 425 kts 332°
2026-05-04 13:07 30.34216 -83.37871 30142 ft 426 kts 332°
2026-05-04 13:08 30.39703 -83.40524 30139 ft 426 kts 332°
2026-05-04 13:08 30.45189 -83.43181 30141 ft 426 kts 332°
2026-05-04 13:09 30.50655 -83.45834 30141 ft 425 kts 332°
2026-05-04 13:09 30.56119 -83.48486 30144 ft 426 kts 332°
2026-05-04 13:10 30.61609 -83.51157 30142 ft 427 kts 332°
2026-05-04 13:10 30.67069 -83.53816 30146 ft 427 kts 332°
2026-05-04 13:11 30.72596 -83.56509 30145 ft 428 kts 332°
2026-05-04 13:11 30.78082 -83.59186 30146 ft 427 kts 332°
2026-05-04 13:12 30.83555 -83.61860 30149 ft 428 kts 332°
2026-05-04 13:12 30.89097 -83.64571 30150 ft 427 kts 332°
2026-05-04 13:13 30.94558 -83.67246 30154 ft 427 kts 331°
2026-05-04 13:13 31.00069 -83.69951 30155 ft 428 kts 331°
2026-05-04 13:14 31.05595 -83.72662 30155 ft 429 kts 331°
2026-05-04 13:14 31.11094 -83.75369 30157 ft 429 kts 331°
2026-05-04 13:15 31.16629 -83.78095 30155 ft 429 kts 331°
2026-05-04 13:15 31.22137 -83.80808 30150 ft 429 kts 331°
2026-05-04 13:16 31.27651 -83.83529 30153 ft 429 kts 331°
2026-05-04 13:16 31.33205 -83.86274 30152 ft 431 kts 331°
2026-05-04 13:17 31.38708 -83.88998 30150 ft 430 kts 331°
2026-05-04 13:17 31.44226 -83.91734 30152 ft 431 kts 331°
2026-05-04 13:18 31.49801 -83.94366 30156 ft 434 kts 334°
2026-05-04 13:18 31.55649 -83.96400 30155 ft 439 kts 340°
2026-05-04 13:19 31.61663 -83.97839 30153 ft 442 kts 343°
2026-05-04 13:19 31.67728 -83.99179 30153 ft 442 kts 343°
2026-05-04 13:20 31.73793 -84.00523 30156 ft 442 kts 343°
2026-05-04 13:20 31.79844 -84.01870 30150 ft 443 kts 343°
2026-05-04 13:21 31.85938 -84.03226 30152 ft 444 kts 343°
2026-05-04 13:21 31.91991 -84.04579 30153 ft 442 kts 343°
2026-05-04 13:22 31.98063 -84.05935 30148 ft 443 kts 343°
2026-05-04 13:22 32.04139 -84.07297 30153 ft 443 kts 343°
2026-05-04 13:23 32.10204 -84.08656 30144 ft 444 kts 343°
2026-05-04 13:23 32.16268 -84.10016 30154 ft 444 kts 343°
2026-05-04 13:24 32.22365 -84.11385 30152 ft 443 kts 343°
2026-05-04 13:24 32.28415 -84.12747 30151 ft 443 kts 343°
2026-05-04 13:25 32.37517 -84.14799 30151 ft 442 kts 343°
2026-05-04 13:25 32.43567 -84.16165 30153 ft 442 kts 343°
2026-05-04 13:26 32.49618 -84.17535 30151 ft 442 kts 343°
2026-05-04 13:26 32.55699 -84.18912 30149 ft 442 kts 343°
2026-05-04 13:27 32.61734 -84.20281 30155 ft 443 kts 343°
2026-05-04 13:27 32.67810 -84.21662 30149 ft 444 kts 343°
2026-05-04 13:28 32.73870 -84.23039 30157 ft 443 kts 343°
2026-05-04 13:28 32.79946 -84.24423 30154 ft 442 kts 343°
2026-05-04 13:29 32.86000 -84.25803 30159 ft 443 kts 343°
2026-05-04 13:29 32.92063 -84.27185 30162 ft 443 kts 343°
2026-05-04 13:30 32.98121 -84.28573 30159 ft 443 kts 343°
2026-05-04 13:30 33.04184 -84.29961 30158 ft 443 kts 343°
2026-05-04 13:31 33.10224 -84.31346 30156 ft 441 kts 343°
2026-05-04 13:31 33.16257 -84.32732 30151 ft 441 kts 343°
2026-05-04 13:32 33.22328 -84.34127 30152 ft 441 kts 343°
2026-05-04 13:32 33.28353 -84.35516 30152 ft 440 kts 343°
2026-05-04 13:33 33.34396 -84.36910 30151 ft 440 kts 343°
2026-05-04 13:33 33.40417 -84.38302 30148 ft 441 kts 343°
2026-05-04 13:34 33.46483 -84.39704 30148 ft 441 kts 343°
2026-05-04 13:34 33.52497 -84.41098 30147 ft 441 kts 343°
2026-05-04 13:35 33.62531 -84.43674 30142 ft 437 kts 339°
2026-05-04 13:36 33.67316 -84.45564 30141 ft 433 kts 334°
2026-05-04 13:36 33.72934 -84.48167 30139 ft 432 kts 333°
2026-05-04 13:37 33.78517 -84.50786 30136 ft 431 kts 333°
2026-05-04 13:37 33.84101 -84.53406 30130 ft 431 kts 333°
2026-05-04 13:38 33.89760 -84.56062 30135 ft 432 kts 333°
2026-05-04 13:38 33.95385 -84.58711 30134 ft 431 kts 333°
2026-05-04 13:39 34.00816 -84.61726 30132 ft 428 kts 329°
2026-05-04 13:39 34.06130 -84.64954 30129 ft 426 kts 328°
2026-05-04 13:40 34.11480 -84.68221 30130 ft 426 kts 328°
2026-05-04 13:40 34.16766 -84.71451 30128 ft 427 kts 328°
2026-05-04 13:41 34.22072 -84.74696 30126 ft 426 kts 328°
2026-05-04 13:41 34.27365 -84.77938 30124 ft 426 kts 328°
2026-05-04 13:42 34.35308 -84.82812 30119 ft 426 kts 328°
2026-05-04 13:42 34.40572 -84.86047 30118 ft 425 kts 328°
2026-05-04 13:43 34.45856 -84.89301 30118 ft 425 kts 328°
2026-05-04 13:43 34.51116 -84.92544 30120 ft 425 kts 328°
2026-05-04 13:44 34.56432 -84.95828 30122 ft 426 kts 328°
2026-05-04 13:44 34.61672 -84.99068 30119 ft 425 kts 328°
2026-05-04 13:45 34.66857 -85.02565 30120 ft 422 kts 324°
2026-05-04 13:45 34.72675 -85.07032 30120 ft 422 kts 323°
2026-05-04 13:46 34.76809 -85.10232 30120 ft 422 kts 323°
2026-05-04 13:46 34.81783 -85.14086 30116 ft 423 kts 323°
2026-05-04 13:47 34.86748 -85.17937 30134 ft 423 kts 323°
2026-05-04 13:47 34.91739 -85.21812 30135 ft 423 kts 323°
2026-05-04 13:48 34.96704 -85.25676 30121 ft 422 kts 323°
2026-05-04 13:48 35.01645 -85.29527 30119 ft 421 kts 323°
2026-05-04 13:49 35.06599 -85.33395 29884 ft 421 kts 323°
2026-05-04 13:49 35.09063 -85.35319 29601 ft 420 kts 323°
2026-05-04 13:49 35.12327 -85.37877 28967 ft 416 kts 323°
2026-05-04 13:50 35.14663 -85.39912 28324 ft 412 kts 319°
2026-05-04 13:50 35.16147 -85.41370 27865 ft 410 kts 316°
2026-05-04 13:50 35.18240 -85.43698 27664 ft 409 kts 313°
2026-05-04 13:50 35.20899 -85.47008 27569 ft 410 kts 311°
2026-05-04 13:51 35.22227 -85.48692 27490 ft 410 kts 311°
2026-05-04 13:51 35.24204 -85.51208 27197 ft 412 kts 311°
2026-05-04 13:51 35.26202 -85.53758 26564 ft 413 kts 311°
2026-05-04 13:51 35.28847 -85.57137 25557 ft 414 kts 311°
2026-05-04 13:52 35.32138 -85.61344 24238 ft 415 kts 312°
2026-05-04 13:52 35.34144 -85.63910 23700 ft 409 kts 312°
2026-05-04 13:52 35.36099 -85.66412 23153 ft 405 kts 311°
2026-05-04 13:53 35.38033 -85.68890 22604 ft 401 kts 311°
2026-05-04 13:53 35.40597 -85.72177 21863 ft 396 kts 311°
2026-05-04 13:53 35.41847 -85.73782 21492 ft 394 kts 311°
2026-05-04 13:54 35.46232 -85.79416 20249 ft 386 kts 311°
2026-05-04 13:54 35.47459 -85.80995 20106 ft 381 kts 312°
2026-05-04 13:54 35.51103 -85.85686 19624 ft 374 kts 311°
2026-05-04 13:55 35.53471 -85.88739 19244 ft 365 kts 311°
2026-05-04 13:55 35.56834 -85.93123 18976 ft 337 kts 310°
2026-05-04 13:55 35.58402 -85.95224 19003 ft 335 kts 310°
2026-05-04 13:56 35.59475 -85.96667 19025 ft 335 kts 310°
2026-05-04 13:56 35.61045 -85.98776 19052 ft 335 kts 310°
2026-05-04 13:56 35.64204 -86.03016 19066 ft 336 kts 311°
2026-05-04 13:57 35.65805 -86.05164 19065 ft 336 kts 310°
2026-05-04 13:57 35.67910 -86.07986 18599 ft 338 kts 311°
2026-05-04 13:58 35.72458 -86.14540 17132 ft 332 kts 306°
2026-05-04 13:58 35.75196 -86.19083 16197 ft 328 kts 305°
2026-05-04 13:58 35.76089 -86.20570 15891 ft 327 kts 305°
2026-05-04 13:59 35.77891 -86.23573 15287 ft 325 kts 305°
2026-05-04 13:59 35.78778 -86.25052 14988 ft 324 kts 304°
2026-05-04 13:59 35.81449 -86.29511 14083 ft 322 kts 304°
2026-05-04 14:00 35.83219 -86.32471 13481 ft 320 kts 304°
2026-05-04 14:00 35.85406 -86.36128 12745 ft 319 kts 304°
2026-05-04 14:00 35.87170 -86.39084 12162 ft 318 kts 304°
2026-05-04 14:01 35.88038 -86.40540 11877 ft 317 kts 304°
2026-05-04 14:01 35.89336 -86.42717 11458 ft 316 kts 304°
2026-05-04 14:01 35.92322 -86.47723 10906 ft 296 kts 303°
2026-05-04 14:02 35.93127 -86.49073 10828 ft 288 kts 303°
2026-05-04 14:02 35.94279 -86.51007 10684 ft 278 kts 303°
2026-05-04 14:02 35.95800 -86.53566 10204 ft 277 kts 303°
2026-05-04 14:02 35.96558 -86.54843 9963 ft 277 kts 303°
2026-05-04 14:03 35.97702 -86.56771 9629 ft 274 kts 303°
2026-05-04 14:03 35.99310 -86.59094 9436 ft 265 kts 323°
2026-05-04 14:03 36.01059 -86.59852 9239 ft 274 kts 354°
2026-05-04 14:03 36.02949 -86.59463 8899 ft 278 kts 17°
2026-05-04 14:04 36.06558 -86.57890 8293 ft 272 kts 17°
2026-05-04 14:04 36.08332 -86.57150 8107 ft 263 kts 16°
2026-05-04 14:04 36.09476 -86.56682 8042 ft 255 kts 15°
2026-05-04 14:05 36.13335 -86.55209 7639 ft 246 kts 13°
2026-05-04 14:05 36.14987 -86.54604 7265 ft 247 kts 14°
2026-05-04 14:05 36.16613 -86.54006 6942 ft 246 kts 13°
2026-05-04 14:06 36.18253 -86.53401 6624 ft 244 kts 13°
2026-05-04 14:06 36.19880 -86.52798 6310 ft 242 kts 13°
2026-05-04 14:06 36.20942 -86.52404 6104 ft 241 kts 13°
2026-05-04 14:06 36.23111 -86.51599 5565 ft 244 kts 13°
2026-05-04 14:07 36.24746 -86.50994 5123 ft 248 kts 13°
2026-05-04 14:07 36.26402 -86.50378 4684 ft 252 kts 12°
2026-05-04 14:07 36.27551 -86.49950 4381 ft 255 kts 12°
2026-05-04 14:07 36.29833 -86.49464 3967 ft 239 kts 345°
2026-05-04 14:08 36.31236 -86.50199 3956 ft 206 kts 312°
2026-05-04 14:08 36.31824 -86.51053 4037 ft 190 kts 299°
2026-05-04 14:08 36.32659 -86.52965 4012 ft 188 kts 291°
2026-05-04 14:08 36.33219 -86.54421 3988 ft 187 kts 290°
2026-05-04 14:09 36.34061 -86.57409 3959 ft 177 kts 271°
2026-05-04 14:09 36.33944 -86.58404 3949 ft 176 kts 249°
2026-05-04 14:10 36.31683 -86.60664 3977 ft 185 kts 210°
2026-05-04 14:10 36.30882 -86.61069 3972 ft 186 kts 207°
2026-05-04 14:10 36.29664 -86.61607 3813 ft 187 kts 205°
2026-05-04 14:10 36.28020 -86.62269 3479 ft 181 kts 204°
2026-05-04 14:11 36.26824 -86.62735 3229 ft 173 kts 205°
2026-05-04 14:11 36.24956 -86.63464 2889 ft 165 kts 204°
2026-05-04 14:11 36.23504 -86.64037 2595 ft 163 kts 204°
2026-05-04 14:12 36.22426 -86.64461 2377 ft 161 kts 203°
2026-05-04 14:12 36.21703 -86.64745 2229 ft 160 kts 202°
2026-05-04 14:12 36.19602 -86.65569 1801 ft 151 kts 200°
2026-05-04 14:13 36.18631 -86.65950 1600 ft 140 kts 200°
2026-05-04 14:13 36.17435 -86.66421 1356 ft 133 kts 200°
2026-05-04 14:13 36.16555 -86.66766 1187 ft 132 kts 199°
2026-05-04 14:13 36.15662 -86.67120 1030 ft 133 kts 199°
2026-05-04 14:14 36.14782 -86.67467 849 ft 134 kts 198°
2026-05-04 14:14 36.13023 -86.68156 607 ft 108 kts 195°
2026-05-04 14:14 36.12558 -86.68337 607 ft 47 kts 197°
2026-05-04 14:15 36.12244 -86.68413 607 ft 12 kts 152°
2026-05-04 14:15 36.12153 -86.68301 607 ft 10 kts 54°
2026-05-04 14:16 36.12274 -86.68245 607 ft 11 kts 15°
2026-05-04 14:16 36.12385 -86.68206 607 ft 12 kts 16°
2026-05-04 14:17 36.12542 -86.68149 607 ft 14 kts 16°
2026-05-04 14:17 36.12675 -86.68102 607 ft 15 kts 16°
2026-05-04 14:17 36.12729 -86.68005 607 ft 7 kts 127°
2026-05-04 14:18 36.12681 -86.67939 607 ft 16 kts 134°
2026-05-04 14:18 36.12504 -86.67709 607 ft 15 kts 133°
2026-05-04 14:19 36.12575 -86.67534 607 ft 13 kts 41°
2026-05-04 14:19 36.12655 -86.67471 607 ft 13 kts 28°
2026-05-04 14:19 36.12738 -86.67405 607 ft 14 kts 42°
2026-05-04 14:19 36.12811 -86.67320 607 ft 14 kts 48°
2026-05-04 14:20 36.12812 -86.67242 607 ft 7 kts 121°
2026-05-04 14:20 36.12782 -86.67194 607 ft 6 kts 120°
2026-05-04 14:20 36.12783 -86.67142 607 ft 6 kts 60°
2026-05-04 14:21 36.12830 -86.67081 607 ft 1 kts 41°
2026-05-04 14:21 36.12833 -86.67078 607 ft 0 kts 41°